www.pogodaiklimat.ru
ПОГОДА в Дэггете
Время
и дата
17:10 18.07
17:50 18.07
18:50 18.07
12:50 19.07
13:50 19.07
14:50 19.07
14:54 19.07
15:50 19.07
16:50 19.07
17:50 19.07
18:50 19.07
19:50 19.07
20:50 19.07
21:50 19.07
22:50 19.07
23:50 19.07
00:50 20.07
01:50 20.07
02:50 20.07
03:50 20.07
04:50 20.07
05:50 20.07
06:50 20.07
07:50 20.07
08:50 20.07
09:50 20.07
10:50 20.07
11:50 20.07
12:50 20.07
13:50 20.07
14:50 20.07
15:50 20.07
16:50 20.07
17:50 20.07
18:50 20.07
19:50 20.07
20:50 20.07
21:50 20.07
22:50 20.07
23:50 20.07
00:50 21.07
01:50 21.07
02:50 21.07
03:50 21.07
04:50 21.07
05:50 21.07
06:50 21.07
07:50 21.07
Ветер
(напр.,м/с)
Видим. Явления Облачность Т
(С)
Тd
(С)
f
(%)
Тe
(С)
Тes
(С)
Комфортность P
(гПа)
Po
(гПа)
Тmin
(С)
Tmax
(С)
R
(мм)
R24
(мм)
S
(см)
З 4 16 км 2/2 780 м +37.2 +13.3 24 +37 +39 очень
жарко
943.6
ЮЗ 7 16 км 2/2 1650 м +37.8 +11.7 21 +37 +38 очень
жарко
1009.1 943.9
З 9 16 км ясно +36.7 +10.0 20 +35 +36 очень
жарко
1009.8 944.5 1.5
нст 2 16 км ясно +41.1 +7.8 13 +39 +60 опасность
солнечного
удара
1010.1 944.8
Ю 2 16 км ясно +41.7 +8.9 14 +40 +59 опасность
солнечного
удара
1009.3 944.2
З 9
{16}
16 км ясно +43.3 +7.8 12 +41 +43 опасность
перегрева
1008.4 943.2
З 10
{14}
16 км ясно +43.3 +7.8 12 +41 +42 опасность
перегрева
943.2
З 10
{13}
16 км ясно +42.8 +7.2 12 +40 +41 очень
жарко
1008.0 942.9 +37.8 +43.9
З 10
{14}
16 км ясно +41.7 +6.1 12 +39 +39 очень
жарко
1008.1 942.9
З 9
{13}
16 км ясно +39.4 +6.1 13 +37 +37 очень
жарко
1008.5 943.2
З 10 16 км ясно +37.2 +6.1 15 +35 +35 очень
жарко
1009.3 943.9
З 8
{12}
16 км ясно +35.6 +7.2 17 +33 +33 жарко 1010.4 945.1
З 7 16 км ясно +33.9 +7.8 20 +32 +32 жарко 1011.0 945.8
СЗ 7 16 км ясно +32.8 +4.4 17 +30 +30 жарко 1011.1 945.8 +32.8 +42.8
З 5 16 км ясно +31.7 +2.8 16 +29 +29 жарко 1011.4 946.1
СЗ 4 16 км ясно +29.4 +2.8 18 +27 +27 жарко 1011.3 945.8
СЗ 4 16 км ясно +28.9 +0.6 16 +26 +26 жарко 1011.1 945.8
З 4 16 км ясно +27.8 +0.6 17 +26 +26 жарко 1011.2 945.8
З 5 16 км ясно +27.2 +2.2 20 +26 +26 жарко 1011.0 945.8
З 4 16 км ясно +26.1 +1.7 20 +25 +25 комфорт 1011.0 945.5 +26.1 +32.8
З 5 16 км ясно +26.1 +2.8 22 +25 +25 комфорт 1011.2 945.8
З 6 16 км ясно +27.8 +3.3 21 +26 +26 жарко 1011.8 946.1
З 6 16 км ясно +31.1 0.0 14 +28 +29 жарко 1012.3 946.7
З 6 16 км ясно +33.9 -2.2 10 +30 +32 жарко 1012.0 946.7
З 8 16 км ясно +36.1 -2.2 9 +32 +34 жарко 1012.1 946.7
СЗ 7 16 км ясно +37.2 -1.7 8 +33 +37 жарко 1011.7 946.4 +26.1 +37.8
З 7 16 км ясно +38.9 -0.6 8 +35 +40 очень
жарко
1011.1 945.8
СЗ 6 16 км ясно +41.7 +1.1 8 +38 +46 очень
жарко
1010.5 945.1
С 4 16 км ясно +42.8 +4.4 10 +40 +54 опасность
солнечного
удара
1009.4 944.2
СВ 2
{8}
16 км ясно +42.8 +4.4 10 +40 +59 опасность
солнечного
удара
1008.7 943.6
С 4 16 км ясно +43.9 +4.4 9 +41 +51 опасность
перегрева
1008.1 942.9
З 5
{8}
16 км ясно +43.3 +5.6 10 +40 +46 очень
жарко
1007.4 942.3 +37.2 +43.9
СЗ 6
{10}
16 км ясно +42.8 +8.3 13 +41 +43 опасность
перегрева
1006.8 941.7
З 6 16 км ясно +41.7 +8.3 14 +40 +41 очень
жарко
1006.8 941.7
З 8 16 км ясно +39.4 +8.9 16 +38 +38 очень
жарко
1007.2 942.3
З 7 16 км ясно +37.8 +7.2 15 +35 +35 очень
жарко
1008.0 942.9
З 5 16 км ясно +35.6 +4.4 14 +33 +33 жарко 1008.9 943.9
З 4 16 км ясно +34.4 +2.8 14 +31 +31 жарко 1009.0 943.9 +34.4 +43.9
З 5 16 км ясно +33.3 +2.8 15 +30 +30 жарко 1009.3 944.2
З 5 16 км ясно +31.7 +2.8 16 +29 +29 жарко 1009.0 943.9
З 4 16 км ясно +30.0 +2.8 18 +28 +28 жарко 1008.6 943.6
З 4 16 км ясно +29.4 +3.3 19 +27 +27 жарко 1008.7 943.6
З 5 16 км ясно +29.4 +3.3 19 +27 +27 жарко 1008.7 943.6
З 5 16 км ясно +29.4 +3.9 20 +28 +28 жарко 1008.7 943.6 +28.3 +33.9
З 5 16 км ясно +28.9 +3.9 20 +27 +27 жарко 1009.1 943.9
З 5 16 км ясно +29.4 +4.4 20 +28 +28 жарко 1009.2 944.2
З 5 16 км ясно +31.7 +3.9 17 +29 +30 жарко 1009.9 944.5
З 7 16 км ясно +33.9 +3.3 15 +31 +32 жарко 1010.0 944.8
Местоположение метеостанции Barstow-Daggett Airport: широта 34.8536 долгота -116.7867 высота над уровнем моря 587 м.
В архиве по умолчанию представлена погода в Дэггете за последние 1-2 суток. Обновление информации о фактической погоде в базе происходит ежечасно! Архивные данные за месяц целиком и за предыдущие месяцы Вы можете получить, выбрав интересующий диапазон дат из раскрывающегося списка и нажав кнопку "Ввод!".
Внимание! Архив погоды МЕТАР в базе сайта по станциям, не включенным в климатический монитор, хранится не более 60 дней. Нет смысла пытаться выбрать более раннюю дату.
*Определитесь, кто Вы:
Внимание! Время в таблицах - местное (без учета летнего времени). Для получения всемирного времени необходимо вычесть поправку, которая равна -8 ч.
Смотрите также архив погоды в соседних городах и на ближайших метеорологических станциях:
Партнеры нашего сайта:      
Пояснения к столбцам:
  • Ветер - указаны скорость ветра в м/с - средняя за 10 мин, порывы в срок и между сроками (в фигурных скобках) и направление, откуда дует ветер: С - северный,
  • СВ - северо-восточный, В - восточный, ЮВ - юго-восточный, Ю - южный, ЮЗ - юго-западный, З - западный, СЗ - северо-западный.
  • Видимость - горизонтальная дальность видимости в метрах или километрах. При видимости от 1 до 10 км при отсутствии осадков обычно наблюдается дымка, при ухудшении видимости до 1 км и менее - туман. В сухую погоду видимость может ухудшаться дымом, пылью или мглою.
  • Явления - указаны атмосферные явления, наблюдавшиеся в срок или в последний час перед сроком; фигурными скобками обозначены явления, наблюдавшиеся между сроками (за 1-3 часа до срока); квадратными скобками обозначены град или гололедные отложения с указанием их диаметра в мм.
  • Облачность - указаны через наклонную черту общая и нижняя облачность в баллах и высота нижней границы облаков в метрах; квадратными скобками обозначены формы облаков: Ci - перистые, Cs - перисто-слоистые, Cc - перисто-кучевые, Ac - высококучевые, As - высокослоистые, Sc - слоисто-кучевые, Ns - слоисто-дождевые, Cu - кучевые, Cb - кучево-дождевые. Подробнее классификацию облаков см. в Атласе облаков (PDF).
  • T - Температура воздуха - температура, измеренная на высоте 2 м над землей.
  • Td - Температура точки росы - температура, при понижении до которой содержащийся в воздухе водяной пар достигнет насыщения.
  • f - Относительная влажность воздуха - влажноcть воздуха, измеренная на высоте 2 м над землей.
  • Te - Эффективная температура - температура, которую ощущает одетый по сезону человек в тени. Характеристика душности погоды. При расчете учитывается влияние влажности воздуха и скорости ветра на теплоощущения человека.
  • Tes - Эффективная температура на солнце - температура, которую ощущает человек, с поправкой на солнечный нагрев. Характеристика знойности погоды. Зависит от высоты солнца над горизонтом, облачности и скорости ветра. Ночью, в пасмурную погоду, а также при ветре 12 м/с и более поправка равна нулю.
  • P - Атмосферное давление - приведенное к уровню моря атмосферное давление.
  • Po - Атмосферное давление - измеренное на уровне метеостанции атмосферное давление.
  • Tmin - Минимальная температура - минимум температуры воздуха на высоте 2 м над землей.
  • Tmax - Максимальная температура - максимум температуры воздуха на высоте 2 м над землей.
  • R - Количество осадков - Количество выпавших осадков за период времени, мм. При наведении курсора мыши на число - период времени, за который выпало указанное количество осадков.
  • R24 - Количество осадков - Количество выпавших осадков за 24 часа, мм.
  • S - Снежный покров - Высота снежного покрова, см. При наведении курсора мыши на число - состояние снежного покрова и степень покрытия местности в баллах.